SCP
0 0 0 0 0 0 0 0 0 0 0 0 0 0 0 0 0 0 0 0 0 0 0 0 0 0 0 0 0 0 0 0 0 0 0 0 0 0 0 0 0 0 0 0
0 0 0 0 0 0 0 0 0 0 0 0 0 0 0 0 0 0 0 0 0 0 0 0 0 0 0 0 0 0 0 0 0 0 0 0 0 0 0 0 0 0 0 0
0 0 0 0 0 0 0 0 0 0 0 0 0 0 0 0 0 0 0 0 0 0 0 0 0 0 0 0 0 0 0 0 0 0 0 0 0 0 0 0 0 0 0 0
0 0 0 0 0 0 0 0 0 0 0 0 0 0 0 0 0 0 0 0 0 0 0 0 0 0 0 0 0 0 0 0 0 0 0 0 0 0 0 0 0 0 0 0
0 0 0 0 0 0 0 0 0 0 0 0 0 0 0 0 0 0 0 0 0 0 0 0 0 0 0 0 0 0 0 0 0 0 0 0 0 0 0 0 0 0 0 0
0 0 0 0 0 0 0 0 0 0 0 0 0 0 0 0 0 0 0 0 0 0 0 0 0 0 0 0 0 0 0 0 0 0 0 0 0 0 0 0 0 0 0 0
0 0 0 0 0 0 0 0 0 0 0 0 0 0 0 0 0 0 0 0 0 0 0 0 0 0 0 0 0 0 0 0 0 0 0 0 0 0 0 0 0 0 0 0
0 0 0 0 0 0 0 0 0 0 0 0 0 0 0 0 0 0 0 0 0 0 0 0 0 0 0 0 0 0 0 0 0 0 0 0 0 0 0 0 0 0 0 0
0 0 0 0 0 0 0 0 0 0 0 0 0 0 0 0 0 0 0 0 0 0 0 0 0 0 0 0 0 0 0 0 0 0 0 0 0 0 0 0 0 0 0 0
0 0 0 0 0 0 0 0 0 0 0 0 0 0 0 0 0 0 0 0 0 0 0 0 0 0 0 0 0 0 0 0 0 0 0 0 0 0 0 0 0 0 0 0
0 0 0 0 0 0 0 -0 -0 -0 0 0 0 0 0 0 0 0 0 0 0 0 0 0 0 0 0 0 0 0 0 0 0 0 0 0 0 0 0 0 0 0 0 0
0 0 0 0 0 0 0 0 -0 -0 0 0 0 0 0 0 0 0 0 0 0 0 0 0 0 0 0 0 0 0 0 0 0 0 0 0 0 0 0 0 0 0 0 0
0 0 0 0 0 0 0 0 -0 -0 0 0 0 0 0 0 0 0 0 0 0 0 0 0 0 0 0 0 0 0 0 0 0 0 0 0 0 0 0 0 0 0 0 0
0 0 0 0 0 0 0 0 0 0 0 0 0 0 0 0 0 0 0 0 0 0 0 0 0 0 0 0 0 0 0 0 0 0 0 0 0 0 0 0 0 0 0 0
0 0 0 0 0 0 0 0 0 0 0 0 0 0 0 0 0 0 0 0 0 0 0 0 0 0 0 0 0 0 0 0 0 0 0 0 0 0 0 0 0 0 0 0
0 0 0 0 0 0 0 0 0 0 0 0 0 0 0 0 0 0 0 0 0 0 0 0 0 0 0 0 0 0 0 0 0 0 0 0 0 0 0 0 0 0 0 0
0 0 0 0 0 0 0 0 0 0 0 0 0 0 0 0 0 0 0 0 0 0 0 0 0 0 0 0 0 0 0 0 0 0 0 0 0 0 0 0 0 0 0 0
0 0 0 0 0 0 0 0 0 0 0 0 0 0 0 0 0 0 0 0 0 0 0 0 0 0 0 0 0 0 0 0 0 0 0 0 0 0 0 0 0 0 0 0
0 0 0 0 0 0 0 0 0 0 0 0 0 0 0 0 0 0 0 0 0 0 0 0 0 0 0 0 0 0 0 0 0 0 0 0 0 0 0 0 0 0 0 0
0 0 0 0 0 0 0 0 0 0 0 0 0 0 0 0 0 0 0 0 0 0 0 0 0 0 0 0 0 0 0 0 0 0 0 0 0 0 0 0 0 0 0 0
0 0 0 0 0 0 0 0 0 0 0 0 0 0 0 0 0 0 0 0 0 0 0 0 0 0 0 0 0 0 0 0 0 0 0 0 0 0 0 0 0 0 0 0
0 0 0 0 0 0 0 0 0 0 0 0 0 0 0 0 0 0 0 0 0 0 0 0 0 0 0 0 0 0 0 0 0 0 0 0 0 0 0 0 0 0 0 0
0 0 0 0 0 0 0 0 0 0 0 0 0 0 0 0 0 0 0 0 0 0 0 0 0 0 0 0 0 0 0 0 0 0 0 0 0 0 0 0 0 0 0 0
0 0 0 0 0 0 0 0 0 0 0 0 0 0 0 0 0 0 0 0 0 0 0 0 0 0 0 0 0 0 0 0 0 0 0 0 0 0 0 0 0 0 0 0
0 0 0 0 0 0 0 0 0 0 0 0 0 0 0 0 0 0 0 0 0 0 0 0 0 0 0 0 0 0 0 0 0 0 0 0 0 0 0 0 0 0 0 0
0 0 0 0 0 0 0 0 0 0 0 0 0 0 0 0 0 0 0 0 0 0 0 0 0 0 0 0 0 0 0 0 0 0 0 0 0 0 0 0 0 0 0 0
0 0 0 0 0 0 0 0 0 0 0 0 0 0 0 0 0 0 0 0 0 0 0 0 0 0 0 0 0 0 0 0 0 0 0 0 0 0 0 0 0 0 0 0
Wind_Speed
9 9 5 7 11 10 13 14 14 19 20 26 21 14 12 10 10 10 10 10 9 8 8 7 6 6 8 9 10 11 13 16 18 15 14 13 14 14 14 13 14 12 11 11
7 8 7 9 14 18 18 15 16 20 24 22 12 7 8 9 9 9 10 10 9 9 9 9 8 8 8 9 9 11 14 16 14 12 13 14 14 14 13 13 12 11 11 10
7 4 4 10 15 17 11 10 11 14 15 8 9 10 10 9 8 8 9 9 10 10 9 10 9 8 8 8 8 11 14 14 13 13 14 14 14 14 14 14 12 12 11 10
4 1 11 12 5 8 10 12 11 11 11 10 10 11 9 7 5 8 9 9 10 10 10 10 9 8 7 6 7 10 12 13 12 13 14 13 13 15 14 12 12 11 11 11
3 6 13 10 9 7 7 9 7 8 8 8 7 7 5 3 3 6 9 10 10 10 10 10 10 8 7 6 6 9 12 13 13 13 14 14 15 15 13 12 11 11 10 11
4 6 11 11 5 1 1 7 4 3 4 6 6 7 8 7 9 11 11 10 10 10 9 10 10 6 6 8 8 11 12 12 11 12 14 15 15 14 11 11 11 11 10 10
7 9 13 10 3 1 3 8 2 2 5 5 4 7 10 11 11 10 10 11 10 9 9 10 9 6 7 9 11 11 9 8 9 11 13 13 12 11 10 11 10 10 10 9
6 7 14 6 4 6 8 5 5 7 7 8 9 10 10 10 10 10 10 10 9 9 10 10 8 6 9 12 11 8 7 8 9 10 11 10 10 10 11 12 11 10 9 8
12 12 7 4 8 7 5 8 9 8 9 9 10 10 10 9 9 10 10 10 9 9 11 11 9 6 10 12 9 8 7 8 8 9 9 9 10 11 10 10 10 9 9 8
10 12 11 10 10 10 11 12 10 9 9 8 9 9 9 9 9 9 9 9 8 10 11 13 12 9 10 12 9 8 9 8 7 8 8 9 9 10 10 11 11 10 10 9
14 13 11 10 10 10 10 9 8 7 6 6 6 7 7 8 9 9 9 8 8 9 12 14 13 13 11 10 8 8 8 7 6 7 8 9 10 10 12 12 13 13 11 9
20 13 13 13 8 9 9 8 7 6 5 5 4 6 7 8 8 9 10 10 10 11 12 13 13 14 13 9 7 8 8 7 6 6 7 7 8 8 18 16 20 21 16 13
20 15 13 13 8 6 5 5 4 3 4 5 6 6 7 8 8 9 11 11 12 12 13 14 13 14 13 10 8 8 9 8 6 7 7 8 8 9 8 13 19 20 20 19
9 9 11 8 6 4 3 3 2 3 5 6 7 7 8 9 10 11 13 12 12 13 14 14 13 15 13 9 8 9 9 10 9 7 7 8 9 9 8 9 9 9 15 20
7 6 7 6 3 2 2 2 4 6 7 8 7 9 10 11 13 14 14 13 13 13 14 13 14 15 12 9 9 9 8 6 6 6 7 8 8 8 8 9 8 7 5 9
5 4 4 3 3 2 3 4 5 7 9 9 10 11 12 12 13 14 14 12 13 15 15 14 15 15 12 10 10 8 7 12 10 6 7 7 8 8 8 8 8 8 9 8
4 4 2 2 3 4 5 6 7 9 10 11 13 13 13 13 14 14 14 12 12 14 15 15 15 14 12 10 9 8 7 8 13 8 6 7 7 8 8 8 8 8 8 10
5 4 3 3 4 5 7 8 9 10 11 12 13 12 13 14 15 16 15 14 14 15 15 14 13 12 11 10 8 7 6 6 6 6 6 7 7 7 7 8 8 8 6 8
1 1 2 4 5 6 8 10 11 10 11 12 12 13 13 14 14 15 14 14 15 16 13 11 19 16 12 12 12 6 6 6 6 6 6 10 9 7 8 8 7 7 7 7
2 3 5 6 7 7 10 11 11 12 12 11 12 13 14 14 13 13 13 13 13 12 13 15 15 12 11 11 13 6 6 7 7 6 6 6 7 7 8 8 7 7 7 7
5 6 7 8 9 10 11 12 12 13 12 11 12 14 15 15 13 12 13 14 13 12 13 18 13 10 10 11 13 6 6 6 6 6 6 6 7 7 8 8 8 8 7 7
6 7 9 10 11 12 11 10 11 12 13 12 13 13 14 14 13 12 12 12 13 17 13 10 10 14 17 17 7 6 6 6 6 5 6 6 7 7 7 8 7 7 7 6
8 9 10 11 12 12 12 11 12 11 12 13 14 14 14 13 11 12 14 10 10 17 15 10 16 23 24 12 6 6 6 6 6 5 6 6 6 6 7 8 7 6 6 6
9 10 11 11 10 11 13 13 11 10 12 13 13 13 13 12 11 10 10 16 20 22 13 15 23 23 20 8 6 5 5 5 5 5 5 5 5 6 6 6 6 6 6 7
10 10 10 10 10 10 11 11 11 12 12 10 12 12 10 9 11 12 12 13 18 20 12 15 20 20 11 7 6 5 4 4 5 5 5 5 5 6 6 6 6 6 6 6
10 9 9 9 10 9 9 9 9 10 10 11 11 10 10 9 11 11 10 12 14 18 13 9 9 11 7 6 6 5 4 4 4 5 5 5 6 6 6 6 7 6 6 5
8 8 7 8 8 8 8 8 10 10 10 11 13 12 11 11 11 11 12 11 11 11 9 8 7 7 6 5 5 3 2 2 3 4 5 5 5 5 6 7 6 5 5 6
Wind_Direction
253 267 262 241 245 223 213 222 236 259 264 274 284 298 302 304 308 312 313 317 316 310 304 297 280 256 238 234 220 209 211 217 221 218 214 210 207 204 200 197 199 197 200 207
267 258 247 250 250 246 242 238 242 261 271 274 290 304 300 301 304 308 311 312 311 309 306 299 285 269 252 240 222 208 216 223 222 214 210 209 206 201 198 198 197 193 199 205
266 277 310 263 237 234 227 217 212 240 256 299 319 314 307 305 307 302 303 303 303 302 297 293 288 275 263 249 223 214 222 226 220 213 213 210 205 200 199 196 192 195 199 204
275 337 240 244 239 224 233 247 231 248 274 295 291 290 283 273 280 301 304 303 303 300 298 295 291 285 274 259 231 223 228 229 220 212 213 207 203 204 202 195 193 196 198 205
212 251 270 285 269 217 214 269 242 236 268 287 298 314 294 259 274 288 291 291 290 291 293 294 295 293 285 271 250 237 236 233 223 213 212 206 206 205 199 193 194 195 196 201
194 224 254 249 253 172 141 280 264 209 280 303 339 335 298 309 316 309 305 303 302 304 303 301 301 303 288 277 260 250 244 238 225 214 212 211 209 204 195 192 195 192 200 202
217 237 262 258 270 130 206 251 275 270 291 296 276 254 273 296 302 298 299 301 302 304 302 298 303 303 286 279 268 264 257 242 227 218 216 215 208 198 188 188 187 192 199 202
199 220 256 245 162 198 234 277 298 297 292 288 281 280 289 298 301 306 306 306 309 309 305 304 304 297 288 284 282 277 256 239 228 218 213 211 202 194 188 186 186 192 196 205
203 225 246 214 218 250 278 286 289 288 288 290 292 295 302 303 304 305 304 306 309 308 305 305 303 289 285 288 292 282 262 247 233 217 208 201 197 193 188 189 189 190 193 204
255 259 260 268 270 271 271 273 281 282 286 293 294 298 302 302 303 305 304 307 308 310 309 308 309 300 283 288 291 279 266 255 233 216 208 201 198 196 195 193 192 192 194 202
259 270 279 258 256 267 279 285 288 294 296 297 299 301 300 300 300 300 300 301 302 301 299 300 304 303 298 292 288 277 267 256 236 220 209 205 206 207 204 205 198 193 196 193
262 265 269 279 279 283 284 286 292 297 305 309 301 295 297 296 294 295 298 298 299 297 298 301 304 302 301 297 284 273 271 256 236 222 212 208 209 218 224 217 215 211 206 198
259 272 273 284 289 286 279 284 291 290 289 296 297 290 291 289 289 293 294 297 296 297 297 299 300 299 299 297 284 267 262 258 238 224 214 210 208 210 214 219 220 217 213 208
263 278 280 280 280 285 278 284 290 291 285 278 279 286 289 289 291 295 296 296 296 296 296 296 296 296 298 295 284 272 264 259 247 227 216 212 211 210 208 202 201 207 213 211
262 259 264 279 281 284 295 301 310 306 302 299 293 293 295 296 297 297 296 297 296 294 295 296 297 297 299 296 287 278 269 261 249 231 218 214 211 209 207 206 205 195 182 205
264 275 273 260 253 277 296 304 302 297 297 295 297 296 294 292 292 293 293 294 296 297 298 298 296 295 298 295 289 282 270 267 258 237 222 215 210 207 205 204 202 194 192 190
246 253 243 252 265 279 283 282 280 285 289 290 290 292 295 296 296 295 296 294 290 289 291 290 290 292 292 288 283 281 274 270 264 248 222 213 208 205 203 200 200 198 196 191
210 210 205 222 255 277 286 286 284 285 285 285 290 293 294 296 296 297 298 300 299 295 291 287 287 291 288 286 281 274 269 261 249 240 224 212 208 203 200 200 199 196 186 193
126 231 262 269 269 272 277 282 283 282 284 289 291 292 291 290 290 291 295 298 298 298 295 289 300 304 295 291 292 271 263 259 252 241 226 219 214 202 198 198 197 191 185 185
299 290 284 283 282 277 279 282 285 288 289 290 292 294 294 292 292 294 295 292 284 280 286 293 296 293 292 293 297 276 260 253 247 238 223 213 206 197 195 196 193 189 189 188
291 288 287 285 285 282 281 286 290 291 292 292 291 290 290 292 292 293 294 295 290 287 291 297 299 295 296 296 299 279 260 250 242 231 218 210 204 196 191 191 191 190 189 187
287 286 285 286 288 290 289 288 288 289 292 292 290 289 290 293 294 291 281 280 287 296 301 295 295 297 303 304 290 275 260 247 237 224 213 206 200 194 189 187 188 188 186 183
283 283 284 286 287 290 292 289 287 287 288 289 290 291 290 290 291 293 295 292 293 301 303 295 299 305 309 307 288 274 259 243 230 217 208 201 195 190 186 185 185 182 178 177
284 285 283 284 288 290 290 289 287 286 284 285 283 282 284 290 290 283 281 294 301 303 301 298 305 309 313 305 289 276 260 241 223 208 198 191 185 181 181 180 177 174 173 173
278 280 282 285 287 286 285 288 291 289 287 286 285 284 281 277 282 290 292 294 297 303 300 302 307 310 309 296 290 279 263 240 216 195 187 182 178 176 176 174 172 171 172 173
275 279 279 275 274 279 283 286 286 288 291 293 293 292 291 289 286 288 292 293 293 298 300 298 300 302 298 293 291 283 266 247 221 194 179 175 173 171 169 168 165 167 167 165
276 277 279 280 277 273 274 278 282 286 288 290 293 295 295 295 295 295 296 297 298 297 297 296 296 296 296 293 288 278 250 207 181 170 168 168 166 165 164 161 160 158 157 158